contact:dominique.lefevre@mio.osupytheas.fr, maurice.libes@osupytheas.fr, didier.mallarino@osupytheas.fr
Project:EMSO http://www.emso-fr.org/EMSO-France
Depth: 2436.0 m
Title:EMSO Ligure Ouest : Data MII capteur AQUADOPP
Date,Latitude,Longitude,X_East,Y_North,Z_Up,Amplitude_X,Amplitude_Y,Amplitude_Z,Batterie,SoundSpeed,Heading,Pitch,Roll,Pressure,TIS,Speed,Direction
, degrees North, degrees East, m.s-1, m.s-1,m.s-1, 1, 1, 1, Volt, m.s-1, degree, degree, degree, dbar, degree_C, m.s-1, degree
2020-12-21T00:04:03,42.805,6.029,0.008,0.007,0.009,102.0,111.0,99.0,13.4,1505.3,327.2,-0.8,1.8,2470.526,13.31,0.01,48.8
2020-12-21T00:07:03,42.805,6.029,-0.009,-0.004,-0.003,100.0,112.0,100.0,13.4,1505.3,327.0,-0.7,1.8,2470.487,13.31,0.009,246.0
2020-12-21T00:10:03,42.805,6.029,0.004,0.025,0.025,100.0,114.0,98.0,13.4,1505.3,324.5,-0.7,1.8,2470.531,13.32,0.025,9.1
2020-12-21T00:13:03,42.805,6.029,0.0,0.001,-0.02,101.0,113.0,99.0,13.4,1505.3,325.3,-0.7,1.8,2470.518,13.32,0.001,0.0
2020-12-21T00:16:03,42.805,6.029,-0.014,0.006,0.006,101.0,111.0,98.0,13.4,1505.3,326.5,-0.7,1.9,2470.462,13.32,0.015,293.2
2020-12-21T00:19:03,42.805,6.029,-0.016,0.018,0.017,99.0,111.0,100.0,13.4,1505.3,324.8,-0.7,1.8,2470.492,13.32,0.024,318.4
2020-12-21T00:22:03,42.805,6.029,-0.034,0.006,-0.011,101.0,110.0,99.0,13.4,1505.3,327.1,-0.7,1.8,2470.486,13.32,0.034,280.0
2020-12-21T00:25:03,42.805,6.029,0.009,-0.012,-0.015,99.0,111.0,99.0,13.3,1505.3,327.5,-0.7,1.8,2470.525,13.32,0.015,143.1
2020-12-21T00:28:03,42.805,6.029,-0.032,0.01,-0.019,101.0,111.0,99.0,13.3,1505.3,322.8,-0.7,1.8,2470.482,13.32,0.033,287.4
2020-12-21T00:31:03,42.805,6.029,-0.02,0.01,-0.011,101.0,114.0,100.0,13.4,1505.3,326.8,-0.7,1.8,2470.441,13.32,0.022,296.6
2020-12-21T00:34:03,42.805,6.029,-0.026,0.026,0.004,99.0,110.0,100.0,13.4,1505.3,324.7,-0.7,1.9,2470.451,13.32,0.036,315.0
2020-12-21T00:37:03,42.805,6.029,-0.013,0.004,0.017,102.0,107.0,99.0,13.4,1505.3,327.7,-0.7,1.8,2470.465,13.32,0.013,287.1
2020-12-21T00:40:03,42.805,6.029,-0.013,0.005,-0.006,102.0,111.0,98.0,13.4,1505.3,323.2,-0.7,1.8,2470.493,13.33,0.013,291.0
2020-12-21T00:43:03,42.805,6.029,0.016,0.01,0.029,101.0,112.0,99.0,13.4,1505.3,323.1,-0.7,1.8,2470.422,13.32,0.018,58.0
2020-12-21T00:46:03,42.805,6.029,-0.012,-0.004,-0.008,101.0,109.0,99.0,13.4,1505.3,323.1,-0.7,1.8,2470.464,13.32,0.012,251.6
2020-12-21T00:49:03,42.805,6.029,0.002,0.035,0.025,101.0,109.0,99.0,13.4,1505.3,327.8,-0.7,1.8,2470.427,13.32,0.035,3.3
2020-12-21T00:52:03,42.805,6.029,-0.007,0.0,0.021,100.0,110.0,99.0,13.4,1505.3,325.5,-0.7,1.8,2470.46,13.32,0.007,270.0
2020-12-21T00:55:03,42.805,6.029,-0.014,0.015,-0.006,101.0,111.0,98.0,13.3,1505.3,326.9,-0.8,1.8,2470.489,13.33,0.02,317.0
2020-12-21T00:58:03,42.805,6.029,0.013,0.003,-0.006,102.0,110.0,99.0,13.3,1505.3,327.9,-0.7,1.8,2470.481,13.32,0.013,77.0
2020-12-21T01:04:03,42.805,6.029,-0.014,0.008,0.004,102.0,112.0,101.0,13.4,1505.3,327.4,-0.7,1.8,2470.496,13.31,0.016,299.7
2020-12-21T01:07:03,42.805,6.029,-0.014,-0.005,-0.022,101.0,110.0,99.0,13.3,1505.3,323.3,-0.7,1.8,2470.486,13.31,0.014,250.4
2020-12-21T01:10:03,42.805,6.029,0.012,0.019,0.033,101.0,110.0,98.0,13.4,1505.3,325.7,-0.7,1.9,2470.502,13.32,0.022,32.3
2020-12-21T01:13:03,42.805,6.029,-0.021,0.004,0.01,101.0,111.0,99.0,13.4,1505.3,324.1,-0.7,1.8,2470.474,13.32,0.021,280.8
2020-12-21T01:16:03,42.805,6.029,-0.046,0.017,-0.042,100.0,109.0,99.0,13.4,1505.3,324.1,-0.7,1.9,2470.506,13.32,0.049,290.3
2020-12-21T01:19:03,42.805,6.029,-0.027,0.006,-0.006,101.0,110.0,99.0,13.4,1505.3,324.9,-0.7,1.8,2470.488,13.32,0.027,282.5
2020-12-21T01:22:03,42.805,6.029,-0.004,-0.021,-0.041,99.0,109.0,100.0,13.4,1505.3,322.6,-0.7,1.9,2470.492,13.32,0.021,190.8
2020-12-21T01:25:03,42.805,6.029,0.054,-0.016,0.035,101.0,107.0,99.0,13.3,1505.3,326.5,-0.7,1.8,2470.442,13.32,0.056,106.5
2020-12-21T01:28:03,42.805,6.029,0.013,-0.006,0.009,100.0,109.0,99.0,13.4,1505.3,326.2,-0.7,1.8,2470.458,13.32,0.014,114.8
2020-12-21T01:31:03,42.805,6.029,0.009,0.002,0.059,100.0,109.0,100.0,13.3,1505.3,325.1,-0.7,1.8,2470.459,13.32,0.009,77.5
2020-12-21T01:34:03,42.805,6.029,0.008,0.002,0.008,101.0,116.0,98.0,13.4,1505.3,328.2,-0.7,1.8,2470.441,13.32,0.008,76.0
2020-12-21T01:37:03,42.805,6.029,0.007,-0.025,0.001,101.0,112.0,98.0,13.4,1505.3,324.6,-0.7,1.8,2470.432,13.32,0.025,164.4
2020-12-21T01:40:03,42.805,6.029,0.009,0.007,0.011,101.0,108.0,99.0,13.4,1505.3,326.9,-0.7,1.8,2470.452,13.32,0.011,52.1
2020-12-21T01:43:03,42.805,6.029,0.026,-0.007,0.017,100.0,110.0,99.0,13.4,1505.3,323.2,-0.7,1.8,2470.426,13.32,0.026,105.1
2020-12-21T01:46:03,42.805,6.029,0.007,0.0,0.033,99.0,110.0,99.0,13.3,1505.3,326.3,-0.7,1.8,2470.497,13.32,0.007,90.0
2020-12-21T01:49:03,42.805,6.029,0.003,-0.003,0.0,100.0,110.0,100.0,13.4,1505.3,326.6,-0.7,1.8,2470.426,13.32,0.004,135.0
2020-12-21T01:52:03,42.805,6.029,0.001,-0.006,0.02,100.0,111.0,98.0,13.4,1505.3,325.2,-0.7,1.8,2470.467,13.32,0.006,170.5
2020-12-21T01:55:03,42.805,6.029,-0.003,-0.001,-0.008,101.0,111.0,99.0,13.4,1505.3,326.4,-0.7,1.8,2470.444,13.32,0.003,251.6
2020-12-21T01:58:03,42.805,6.029,0.0,-0.012,-0.023,101.0,111.0,98.0,13.3,1505.3,325.7,-0.7,1.8,2470.453,13.32,0.012,180.0
2020-12-21T02:04:03,42.805,6.029,-0.001,-0.01,0.018,100.0,111.0,98.0,13.4,1505.2,325.6,-0.7,1.8,2470.487,13.3,0.01,185.7
2020-12-21T02:07:03,42.805,6.029,-0.027,-0.013,-0.031,100.0,110.0,99.0,13.4,1505.3,324.7,-0.7,1.8,2470.441,13.31,0.029,244.3
2020-12-21T02:10:03,42.805,6.029,0.0,-0.022,-0.013,99.0,113.0,100.0,13.4,1505.3,323.4,-0.7,1.8,2470.476,13.31,0.022,180.0
2020-12-21T02:13:03,42.805,6.029,-0.006,0.002,-0.011,100.0,111.0,98.0,13.4,1505.3,328.0,-0.7,1.8,2470.48,13.32,0.006,288.4
2020-12-21T02:16:03,42.805,6.029,-0.04,0.002,-0.003,99.0,112.0,99.0,13.4,1505.3,322.8,-0.7,1.8,2470.513,13.32,0.04,272.9
2020-12-21T02:19:03,42.805,6.029,-0.014,0.012,-0.005,100.0,113.0,98.0,13.4,1505.3,326.9,-0.7,1.8,2470.473,13.32,0.018,310.6
2020-12-21T02:22:03,42.805,6.029,0.016,-0.008,0.022,100.0,109.0,100.0,13.4,1505.3,324.3,-0.7,1.8,2470.404,13.32,0.017,116.6
2020-12-21T02:25:03,42.805,6.029,0.0,-0.011,0.01,100.0,108.0,99.0,13.3,1505.3,327.5,-0.7,1.8,2470.453,13.32,0.011,180.0
2020-12-21T02:28:03,42.805,6.029,0.021,-0.002,0.0,100.0,110.0,99.0,13.4,1505.3,325.9,-0.7,1.9,2470.473,13.32,0.021,95.4
2020-12-21T02:31:03,42.805,6.029,0.015,0.0,-0.002,100.0,107.0,99.0,13.3,1505.3,327.6,-0.7,1.8,2470.463,13.32,0.015,90.0
2020-12-21T02:34:03,42.805,6.029,-0.006,0.017,0.027,101.0,109.0,99.0,13.4,1505.3,326.5,-0.7,1.8,2470.423,13.32,0.018,340.6
2020-12-21T02:37:03,42.805,6.029,-0.002,0.0,0.024,100.0,109.0,99.0,13.4,1505.3,326.5,-0.7,1.8,2470.469,13.32,0.002,270.0
2020-12-21T02:40:03,42.805,6.029,-0.012,-0.008,-0.036,101.0,108.0,98.0,13.4,1505.3,323.9,-0.7,1.8,2470.403,13.32,0.014,236.3
2020-12-21T02:43:03,42.805,6.029,0.008,0.003,0.028,99.0,108.0,99.0,13.3,1505.3,323.3,-0.7,1.8,2470.433,13.32,0.008,69.4
2020-12-21T02:46:03,42.805,6.029,-0.03,0.006,-0.03,101.0,109.0,101.0,13.4,1505.3,324.7,-0.7,1.8,2470.419,13.32,0.03,281.3
2020-12-21T02:49:03,42.805,6.029,-0.005,0.002,-0.005,100.0,109.0,100.0,13.3,1505.3,326.7,-0.7,1.9,2470.438,13.32,0.005,291.8
2020-12-21T02:52:03,42.805,6.029,0.009,-0.004,0.025,100.0,108.0,99.0,13.4,1505.3,325.4,-0.7,1.8,2470.43,13.32,0.009,114.0
2020-12-21T02:55:03,42.805,6.029,0.004,-0.014,-0.027,101.0,107.0,99.0,13.3,1505.3,327.5,-0.7,1.8,2470.421,13.32,0.014,164.1
2020-12-21T02:58:03,42.805,6.029,0.063,-0.003,0.073,99.0,109.0,99.0,13.3,1505.3,326.3,-0.7,1.8,2470.454,13.32,0.063,92.7
2020-12-21T03:04:03,42.805,6.029,0.014,-0.003,0.035,101.0,107.0,99.0,13.4,1505.2,326.5,-0.8,1.8,2470.484,13.3,0.014,102.1
2020-12-21T03:07:03,42.805,6.029,-0.006,-0.003,0.023,100.0,108.0,99.0,13.3,1505.3,327.1,-0.7,1.8,2470.448,13.31,0.006,243.4
2020-12-21T03:10:03,42.805,6.029,0.017,-0.028,0.006,102.0,108.0,99.0,13.3,1505.3,325.4,-0.7,1.8,2470.462,13.31,0.032,148.7
2020-12-21T03:13:03,42.805,6.029,0.022,0.006,0.019,100.0,106.0,100.0,13.4,1505.3,325.6,-0.7,1.8,2470.418,13.32,0.022,74.7
2020-12-21T03:16:03,42.805,6.029,-0.004,-0.021,0.025,100.0,107.0,99.0,13.4,1505.3,324.9,-0.7,1.8,2470.431,13.32,0.021,190.8
2020-12-21T03:19:03,42.805,6.029,0.03,-0.017,0.006,101.0,107.0,99.0,13.4,1505.3,327.9,-0.7,1.8,2470.422,13.32,0.034,119.5
2020-12-21T03:22:03,42.805,6.029,-0.035,-0.021,0.008,100.0,107.0,98.0,13.4,1505.3,324.5,-0.7,1.8,2470.45,13.32,0.04,239.0
2020-12-21T03:25:03,42.805,6.029,0.016,0.003,0.0,102.0,106.0,99.0,13.4,1505.3,324.0,-0.7,1.8,2470.406,13.32,0.016,79.4
2020-12-21T03:28:03,42.805,6.029,0.001,-0.001,0.043,101.0,107.0,99.0,13.4,1505.3,325.3,-0.7,1.8,2470.411,13.32,0.001,135.0
2020-12-21T03:31:03,42.805,6.029,0.037,-0.006,0.038,101.0,108.0,98.0,13.4,1505.3,327.7,-0.7,1.8,2470.457,13.32,0.037,99.2
2020-12-21T03:34:03,42.805,6.029,0.006,0.0,0.026,101.0,106.0,99.0,13.4,1505.3,328.1,-0.7,1.8,2470.435,13.32,0.006,90.0
2020-12-21T03:37:03,42.805,6.029,0.015,-0.013,0.034,101.0,107.0,99.0,13.4,1505.3,323.6,-0.7,1.8,2470.446,13.32,0.019,130.9
2020-12-21T03:40:03,42.805,6.029,0.062,-0.006,0.022,99.0,108.0,100.0,13.4,1505.3,327.2,-0.7,1.9,2470.446,13.32,0.062,95.5
2020-12-21T03:43:03,42.805,6.029,0.014,-0.028,-0.014,101.0,109.0,99.0,13.4,1505.3,327.1,-0.7,1.8,2470.438,13.32,0.031,153.4
2020-12-21T03:46:03,42.805,6.029,0.005,0.002,0.013,100.0,106.0,100.0,13.4,1505.3,326.3,-0.7,1.8,2470.411,13.32,0.005,68.2
2020-12-21T03:49:03,42.805,6.029,0.001,-0.015,0.007,100.0,105.0,100.0,13.4,1505.3,325.6,-0.7,1.8,2470.447,13.32,0.015,176.2
2020-12-21T03:52:03,42.805,6.029,0.006,-0.028,-0.016,100.0,106.0,99.0,13.4,1505.3,323.5,-0.7,1.8,2470.428,13.32,0.028,167.9
2020-12-21T03:55:03,42.805,6.029,0.016,-0.013,0.008,100.0,106.0,99.0,13.3,1505.3,324.4,-0.7,1.8,2470.398,13.32,0.02,129.1
2020-12-21T03:58:03,42.805,6.029,-0.001,-0.018,-0.013,100.0,106.0,100.0,13.3,1505.3,325.7,-0.7,1.8,2470.43,13.32,0.018,183.2
2020-12-21T04:04:03,42.805,6.029,0.035,0.0,0.041,100.0,106.0,99.0,13.4,1505.2,325.4,-0.7,1.8,2470.464,13.3,0.035,90.0
2020-12-21T04:07:03,42.805,6.029,0.031,-0.011,0.03,100.0,106.0,100.0,13.4,1505.3,326.1,-0.7,1.8,2470.425,13.31,0.032,109.5
2020-12-21T04:10:03,42.805,6.029,0.015,-0.02,0.025,101.0,104.0,99.0,13.3,1505.3,324.8,-0.7,1.8,2470.409,13.31,0.025,143.1
2020-12-21T04:13:03,42.805,6.029,0.007,-0.017,0.001,101.0,106.0,99.0,13.4,1505.3,325.2,-0.7,1.8,2470.435,13.32,0.018,157.6
2020-12-21T04:16:03,42.805,6.029,0.007,-0.005,-0.003,101.0,106.0,100.0,13.4,1505.3,326.0,-0.7,1.8,2470.44,13.32,0.008,125.5
2020-12-21T04:19:03,42.805,6.029,0.006,0.001,0.019,101.0,107.0,99.0,13.4,1505.3,322.6,-0.7,1.9,2470.427,13.32,0.006,80.5
2020-12-21T04:22:03,42.805,6.029,0.014,0.006,0.013,101.0,107.0,98.0,13.3,1505.3,325.9,-0.7,1.9,2470.438,13.32,0.015,66.8
2020-12-21T04:25:03,42.805,6.029,0.003,-0.007,0.011,101.0,108.0,98.0,13.4,1505.3,323.2,-0.7,1.8,2470.46,13.32,0.007,156.8
2020-12-21T04:28:03,42.805,6.029,0.014,0.008,0.016,100.0,108.0,98.0,13.4,1505.3,323.0,-0.7,1.9,2470.405,13.32,0.016,60.3
2020-12-21T04:31:03,42.805,6.029,0.009,-0.014,0.001,101.0,106.0,99.0,13.4,1505.3,326.5,-0.7,1.8,2470.423,13.32,0.016,147.3
2020-12-21T04:34:03,42.805,6.029,0.011,-0.011,0.02,103.0,104.0,99.0,13.3,1505.3,324.2,-0.7,1.8,2470.407,13.32,0.015,135.0
2020-12-21T04:37:03,42.805,6.029,0.0,-0.015,0.004,100.0,105.0,99.0,13.4,1505.3,325.5,-0.7,1.8,2470.426,13.32,0.015,180.0
2020-12-21T04:40:03,42.805,6.029,0.005,-0.008,0.01,100.0,106.0,99.0,13.4,1505.3,324.8,-0.7,1.8,2470.403,13.32,0.009,148.0
2020-12-21T04:43:03,42.805,6.029,0.027,-0.022,0.016,100.0,106.0,100.0,13.4,1505.3,328.5,-0.7,1.9,2470.427,13.32,0.034,129.2
2020-12-21T04:46:03,42.805,6.029,-0.045,-0.005,-0.065,101.0,107.0,100.0,13.4,1505.3,325.8,-0.7,1.8,2470.418,13.32,0.045,263.7
2020-12-21T04:49:03,42.805,6.029,0.008,0.0,0.027,100.0,106.0,100.0,13.3,1505.3,324.3,-0.7,1.8,2470.438,13.33,0.008,90.0
2020-12-21T04:52:03,42.805,6.029,0.02,0.003,0.004,101.0,108.0,99.0,13.4,1505.3,325.5,-0.7,1.8,2470.424,13.33,0.02,81.5
2020-12-21T04:55:03,42.805,6.029,-0.02,0.003,0.013,101.0,107.0,98.0,13.4,1505.3,324.4,-0.7,1.8,2470.378,13.32,0.02,278.5
2020-12-21T04:58:03,42.805,6.029,0.052,0.0,0.041,100.0,108.0,99.0,13.3,1505.3,325.5,-0.7,1.9,2470.371,13.32,0.052,90.0
2020-12-21T05:04:03,42.805,6.029,0.005,0.016,0.012,100.0,108.0,99.0,13.4,1505.2,325.5,-0.8,1.8,2470.485,13.3,0.016,17.4
2020-12-21T05:07:03,42.805,6.029,0.005,0.022,0.038,101.0,106.0,99.0,13.4,1505.3,323.6,-0.7,1.8,2470.425,13.31,0.022,12.8
2020-12-21T05:10:03,42.805,6.029,0.036,-0.007,0.025,101.0,107.0,101.0,13.4,1505.3,328.2,-0.7,1.9,2470.415,13.32,0.036,101.0
2020-12-21T05:13:03,42.805,6.029,0.038,-0.005,0.01,101.0,107.0,99.0,13.4,1505.3,328.0,-0.7,1.8,2470.426,13.32,0.038,97.5
2020-12-21T05:16:03,42.805,6.029,0.058,0.006,0.041,101.0,107.0,99.0,13.3,1505.3,327.0,-0.7,1.9,2470.409,13.32,0.058,84.1
2020-12-21T05:19:03,42.805,6.029,0.022,-0.012,0.042,101.0,108.0,99.0,13.4,1505.3,327.5,-0.7,1.8,2470.387,13.32,0.025,118.6
2020-12-21T05:22:03,42.805,6.029,-0.007,-0.006,-0.012,101.0,108.0,99.0,13.4,1505.3,326.1,-0.7,1.8,2470.397,13.32,0.009,229.4
2020-12-21T05:25:03,42.805,6.029,0.051,-0.014,0.023,101.0,108.0,99.0,13.4,1505.3,323.9,-0.7,1.8,2470.403,13.32,0.052,105.3
2020-12-21T05:28:03,42.805,6.029,0.026,-0.011,0.043,100.0,107.0,99.0,13.3,1505.3,327.2,-0.7,1.8,2470.429,13.32,0.028,112.9
2020-12-21T05:31:03,42.805,6.029,0.003,-0.009,0.029,101.0,106.0,100.0,13.4,1505.3,326.7,-0.7,1.8,2470.413,13.32,0.009,161.6
2020-12-21T05:34:03,42.805,6.029,0.012,-0.01,0.006,101.0,108.0,99.0,13.4,1505.3,324.6,-0.7,1.8,2470.429,13.32,0.015,129.8
2020-12-21T05:37:03,42.805,6.029,0.001,-0.012,0.032,100.0,106.0,100.0,13.4,1505.3,324.7,-0.7,1.8,2470.434,13.32,0.012,175.2
2020-12-21T05:40:03,42.805,6.029,-0.004,0.008,0.016,100.0,108.0,99.0,13.4,1505.3,327.3,-0.7,1.8,2470.396,13.32,0.008,333.4
2020-12-21T05:46:03,42.805,6.029,0.014,-0.005,0.004,101.0,107.0,99.0,13.4,1505.2,324.7,-0.7,1.8,2470.446,13.3,0.014,109.6
2020-12-21T05:49:03,42.805,6.029,0.016,-0.014,0.028,100.0,107.0,100.0,13.4,1505.3,324.9,-0.8,1.8,2470.425,13.31,0.021,131.2
2020-12-21T05:52:03,42.805,6.029,0.023,-0.036,-0.013,101.0,106.0,99.0,13.4,1505.3,325.1,-0.7,1.9,2470.438,13.32,0.042,147.4
2020-12-21T05:55:03,42.805,6.029,0.017,-0.03,-0.014,100.0,106.0,99.0,13.4,1505.3,322.6,-0.7,1.8,2470.427,13.32,0.034,150.5
2020-12-21T05:58:03,42.805,6.029,0.031,-0.005,0.019,100.0,107.0,99.0,13.4,1505.3,326.5,-0.7,1.8,2470.435,13.32,0.031,99.2
2020-12-21T06:04:03,42.805,6.029,0.006,-0.014,-0.002,101.0,106.0,99.0,13.4,1505.2,326.3,-0.7,1.8,2470.456,13.3,0.015,156.8
2020-12-21T06:07:03,42.805,6.029,-0.022,-0.012,-0.007,100.0,106.0,99.0,13.4,1505.3,325.5,-0.7,1.8,2470.482,13.31,0.025,241.4
2020-12-21T06:10:03,42.805,6.029,0.028,0.002,0.036,101.0,107.0,98.0,13.4,1505.3,326.8,-0.7,1.9,2470.433,13.32,0.028,85.9
2020-12-21T06:13:03,42.805,6.029,0.01,0.009,0.047,100.0,107.0,99.0,13.4,1505.3,324.2,-0.7,1.8,2470.458,13.32,0.013,48.0
2020-12-21T06:16:03,42.805,6.029,-0.009,-0.039,-0.042,101.0,106.0,98.0,13.4,1505.3,324.5,-0.7,1.9,2470.413,13.32,0.04,193.0
2020-12-21T06:19:03,42.805,6.029,0.019,-0.015,0.024,101.0,105.0,99.0,13.4,1505.3,328.3,-0.7,1.8,2470.454,13.32,0.024,128.3
2020-12-21T06:22:03,42.805,6.029,0.007,-0.008,0.032,100.0,106.0,100.0,13.4,1505.3,325.0,-0.7,1.8,2470.427,13.33,0.01,138.8
2020-12-21T06:25:03,42.805,6.029,0.0,-0.023,-0.01,101.0,105.0,100.0,13.4,1505.3,325.7,-0.7,1.8,2470.428,13.33,0.023,180.0
2020-12-21T06:28:03,42.805,6.029,0.007,-0.01,-0.004,101.0,105.0,99.0,13.4,1505.3,324.9,-0.7,1.8,2470.39,13.33,0.012,145.0
2020-12-21T06:31:03,42.805,6.029,-0.004,-0.011,0.03,102.0,108.0,98.0,13.4,1505.3,323.6,-0.7,1.8,2470.452,13.33,0.011,200.0
2020-12-21T06:34:03,42.805,6.029,0.005,-0.011,0.023,102.0,106.0,99.0,13.4,1505.3,326.1,-0.7,1.8,2470.39,13.33,0.012,155.6
2020-12-21T06:37:03,42.805,6.029,0.021,-0.025,0.035,101.0,106.0,99.0,13.4,1505.3,327.8,-0.7,1.8,2470.445,13.33,0.032,140.0
2020-12-21T06:40:03,42.805,6.029,0.014,-0.004,0.004,101.0,105.0,99.0,13.4,1505.3,326.7,-0.7,1.8,2470.355,13.33,0.014,105.9
2020-12-21T06:43:03,42.805,6.029,0.017,-0.018,0.001,101.0,106.0,99.0,13.4,1505.3,323.5,-0.7,1.8,2470.437,13.33,0.024,136.6
2020-12-21T06:46:03,42.805,6.029,0.025,-0.003,0.022,101.0,106.0,99.0,13.4,1505.3,324.8,-0.7,1.8,2470.407,13.33,0.025,96.8
2020-12-21T06:49:03,42.805,6.029,0.002,-0.011,0.01,101.0,105.0,99.0,13.4,1505.3,324.3,-0.7,1.8,2470.398,13.33,0.011,169.7
2020-12-21T06:52:03,42.805,6.029,0.039,-0.007,0.045,101.0,106.0,99.0,13.4,1505.3,325.4,-0.7,1.9,2470.384,13.33,0.039,100.2
2020-12-21T06:55:03,42.805,6.029,0.025,0.009,0.039,102.0,105.0,100.0,13.3,1505.3,327.5,-0.7,1.8,2470.456,13.33,0.026,70.2
2020-12-21T06:58:03,42.805,6.029,0.027,-0.023,0.027,101.0,106.0,100.0,13.4,1505.3,324.6,-0.7,1.8,2470.403,13.33,0.035,130.4
2020-12-21T07:04:03,42.805,6.029,0.017,-0.01,0.01,100.0,105.0,100.0,13.4,1505.3,323.0,-0.7,1.8,2470.43,13.31,0.019,120.5
2020-12-21T07:07:03,42.805,6.029,0.029,-0.014,-0.004,101.0,105.0,98.0,13.3,1505.3,323.9,-0.7,1.8,2470.419,13.32,0.032,115.8
2020-12-21T07:10:03,42.805,6.029,0.016,-0.02,0.02,101.0,105.0,99.0,13.3,1505.3,326.9,-0.7,1.8,2470.434,13.32,0.025,141.3
2020-12-21T07:13:03,42.805,6.029,0.026,0.0,0.047,101.0,105.0,99.0,13.4,1505.3,326.5,-0.7,1.8,2470.423,13.32,0.026,90.0
2020-12-21T07:16:03,42.805,6.029,0.018,0.0,0.021,101.0,106.0,101.0,13.4,1505.3,324.5,-0.7,1.8,2470.432,13.33,0.018,90.0
2020-12-21T07:19:03,42.805,6.029,0.039,-0.003,0.053,100.0,106.0,99.0,13.3,1505.3,326.0,-0.7,1.8,2470.42,13.33,0.039,94.4
2020-12-21T07:22:03,42.805,6.029,0.034,0.0,0.027,101.0,106.0,99.0,13.4,1505.3,326.8,-0.7,1.9,2470.404,13.33,0.034,90.0
2020-12-21T07:25:03,42.805,6.029,0.008,0.008,0.048,100.0,105.0,99.0,13.4,1505.3,326.7,-0.8,1.8,2470.445,13.33,0.011,45.0
2020-12-21T07:28:03,42.805,6.029,0.003,-0.014,0.02,100.0,106.0,99.0,13.4,1505.3,325.7,-0.7,1.8,2470.421,13.33,0.014,167.9
2020-12-21T07:31:03,42.805,6.029,0.038,-0.014,0.018,100.0,107.0,99.0,13.3,1505.3,324.8,-0.7,1.8,2470.422,13.33,0.04,110.2
2020-12-21T07:34:03,42.805,6.029,0.019,-0.011,0.036,101.0,105.0,99.0,13.4,1505.3,324.1,-0.7,1.8,2470.43,13.33,0.021,120.1
2020-12-21T07:37:03,42.805,6.029,0.045,0.003,0.06,101.0,106.0,98.0,13.4,1505.4,325.0,-0.7,1.8,2470.426,13.34,0.045,86.2
2020-12-21T07:40:03,42.805,6.029,-0.002,-0.021,-0.021,101.0,105.0,99.0,13.4,1505.4,324.4,-0.7,1.8,2470.421,13.34,0.021,185.4
2020-12-21T07:43:03,42.805,6.029,-0.006,-0.002,0.03,100.0,106.0,98.0,13.4,1505.4,327.8,-0.7,1.8,2470.466,13.34,0.006,251.6
2020-12-21T07:46:03,42.805,6.029,-0.01,-0.016,-0.034,100.0,107.0,100.0,13.4,1505.4,325.9,-0.7,1.8,2470.398,13.34,0.018,212.0
2020-12-21T07:49:03,42.805,6.029,0.026,0.004,0.003,101.0,105.0,98.0,13.3,1505.4,324.1,-0.7,1.8,2470.405,13.34,0.026,81.3
2020-12-21T07:52:03,42.805,6.029,0.001,-0.001,0.0,100.0,106.0,99.0,13.4,1505.4,327.3,-0.7,1.8,2470.432,13.34,0.001,135.0
2020-12-21T07:55:03,42.805,6.029,-0.011,-0.006,0.015,101.0,105.0,98.0,13.4,1505.4,325.0,-0.7,1.8,2470.419,13.34,0.012,241.4
2020-12-21T07:58:03,42.805,6.029,0.01,0.007,0.031,100.0,106.0,99.0,13.4,1505.4,323.0,-0.7,1.8,2470.445,13.34,0.012,55.0
2020-12-21T08:04:03,42.805,6.029,0.0,0.015,0.034,99.0,107.0,99.0,13.4,1505.3,323.6,-0.7,1.8,2470.466,13.33,0.015,0.0
2020-12-21T08:07:03,42.805,6.029,-0.024,0.0,-0.009,101.0,105.0,99.0,13.3,1505.3,328.1,-0.7,1.8,2470.48,13.33,0.024,270.0
2020-12-21T08:10:03,42.805,6.029,0.013,-0.011,0.029,101.0,104.0,98.0,13.4,1505.4,327.7,-0.7,1.8,2470.483,13.34,0.017,130.2
2020-12-21T08:13:03,42.805,6.029,-0.015,-0.007,-0.045,100.0,105.0,99.0,13.3,1505.4,324.1,-0.7,1.8,2470.46,13.34,0.016,245.0
2020-12-21T08:16:03,42.805,6.029,-0.017,-0.011,0.012,100.0,105.0,101.0,13.4,1505.4,326.9,-0.7,1.8,2470.456,13.34,0.02,237.1
2020-12-21T08:19:03,42.805,6.029,0.011,-0.018,-0.01,100.0,105.0,99.0,13.4,1505.4,325.1,-0.7,1.8,2470.46,13.34,0.021,148.6
2020-12-21T08:22:03,42.805,6.029,-0.011,0.015,0.028,100.0,105.0,98.0,13.4,1505.4,325.1,-0.7,1.9,2470.471,13.34,0.018,323.7
2020-12-21T08:25:03,42.805,6.029,0.019,-0.002,0.037,101.0,105.0,100.0,13.3,1505.4,325.4,-0.7,1.8,2470.474,13.34,0.019,96.0
2020-12-21T08:28:03,42.805,6.029,0.014,-0.003,0.037,100.0,105.0,99.0,13.4,1505.4,327.4,-0.7,1.8,2470.482,13.34,0.014,102.1
2020-12-21T08:31:03,42.805,6.029,0.016,-0.017,0.02,100.0,105.0,98.0,13.4,1505.4,326.2,-0.7,1.8,2470.477,13.34,0.023,136.7
2020-12-21T08:34:03,42.805,6.029,0.002,-0.01,0.021,101.0,105.0,99.0,13.4,1505.4,326.1,-0.7,1.8,2470.446,13.34,0.01,168.7
2020-12-21T08:37:03,42.805,6.029,-0.007,-0.004,0.002,101.0,106.0,98.0,13.3,1505.4,324.7,-0.7,1.8,2470.435,13.34,0.008,240.3
2020-12-21T08:40:03,42.805,6.029,-0.036,-0.006,-0.009,101.0,106.0,99.0,13.4,1505.4,327.4,-0.7,1.8,2470.478,13.34,0.036,260.5
2020-12-21T08:43:03,42.805,6.029,-0.003,-0.003,0.005,101.0,106.0,98.0,13.4,1505.4,327.6,-0.7,1.8,2470.458,13.34,0.004,225.0
2020-12-21T08:46:03,42.805,6.029,-0.059,-0.008,-0.055,100.0,106.0,99.0,13.3,1505.4,327.6,-0.7,1.8,2470.473,13.34,0.059,262.3
2020-12-21T08:49:03,42.805,6.029,-0.024,0.007,-0.004,100.0,107.0,99.0,13.4,1505.4,328.4,-0.7,1.8,2470.46,13.34,0.025,286.3
2020-12-21T08:52:03,42.805,6.029,-0.035,-0.009,-0.027,100.0,106.0,99.0,13.3,1505.4,326.9,-0.7,1.8,2470.471,13.34,0.036,255.6
2020-12-21T08:55:03,42.805,6.029,-0.057,0.022,-0.018,99.0,107.0,99.0,13.4,1505.4,326.4,-0.7,1.8,2470.481,13.34,0.061,291.1
2020-12-21T08:58:03,42.805,6.029,-0.03,0.002,0.019,101.0,106.0,99.0,13.3,1505.4,327.7,-0.7,1.8,2470.47,13.34,0.03,273.8
2020-12-21T09:04:03,42.805,6.029,-0.073,-0.001,-0.062,101.0,106.0,99.0,13.4,1505.3,325.2,-0.8,1.8,2470.544,13.32,0.073,269.2
2020-12-21T09:07:03,42.805,6.029,-0.054,-0.015,-0.052,100.0,106.0,99.0,13.3,1505.3,325.2,-0.7,1.8,2470.48,13.33,0.056,254.5
2020-12-21T09:10:03,42.805,6.029,-0.059,-0.004,-0.059,100.0,106.0,100.0,13.4,1505.3,325.4,-0.7,1.8,2470.521,13.33,0.059,266.1
2020-12-21T09:13:03,42.805,6.029,-0.027,-0.012,-0.025,101.0,106.0,101.0,13.4,1505.3,323.7,-0.7,1.8,2470.51,13.33,0.029,246.0
2020-12-21T09:16:03,42.805,6.029,-0.071,-0.01,-0.054,100.0,106.0,99.0,13.3,1505.4,324.5,-0.7,1.8,2470.554,13.34,0.071,262.0
2020-12-21T09:19:03,42.805,6.029,-0.049,-0.017,-0.053,101.0,106.0,99.0,13.4,1505.4,324.3,-0.7,1.8,2470.526,13.34,0.051,250.9
2020-12-21T09:22:03,42.805,6.029,-0.057,0.006,-0.036,100.0,108.0,99.0,13.4,1505.4,325.1,-0.7,1.8,2470.528,13.34,0.057,276.0
2020-12-21T09:25:03,42.805,6.029,-0.048,-0.014,-0.048,99.0,105.0,100.0,13.4,1505.4,323.9,-0.7,1.8,2470.484,13.34,0.05,253.7
2020-12-21T09:28:03,42.805,6.029,-0.052,0.007,-0.028,102.0,105.0,98.0,13.4,1505.4,327.9,-0.7,1.8,2470.529,13.34,0.052,277.7
2020-12-21T09:31:03,42.805,6.029,-0.053,-0.002,0.001,100.0,105.0,100.0,13.4,1505.4,326.3,-0.7,1.9,2470.538,13.34,0.053,267.8
2020-12-21T09:37:03,42.805,6.029,-0.031,-0.004,-0.012,101.0,107.0,98.0,13.3,1505.3,326.9,-0.7,1.8,2470.564,13.32,0.031,262.7
2020-12-21T09:40:03,42.805,6.029,-0.025,0.01,-0.001,101.0,105.0,99.0,13.3,1505.3,324.6,-0.7,1.8,2470.543,13.33,0.026,291.8
2020-12-21T09:43:03,42.805,6.029,-0.028,-0.009,-0.015,100.0,106.0,100.0,13.4,1505.3,326.7,-0.7,1.8,2470.601,13.33,0.029,252.2
2020-12-21T09:46:03,42.805,6.029,-0.052,0.011,-0.026,104.0,106.0,98.0,13.3,1505.3,326.3,-0.7,1.8,2470.541,13.33,0.053,281.9
2020-12-21T09:49:03,42.805,6.029,-0.018,-0.006,-0.022,100.0,106.0,99.0,13.3,1505.3,327.6,-0.7,1.9,2470.566,13.33,0.018,251.6
2020-12-21T09:52:03,42.805,6.029,-0.042,0.003,0.013,102.0,105.0,99.0,13.4,1505.3,324.3,-0.7,1.8,2470.501,13.33,0.042,274.1
2020-12-21T09:55:03,42.805,6.029,-0.012,0.004,-0.021,100.0,106.0,100.0,13.3,1505.4,325.3,-0.7,1.8,2470.514,13.34,0.012,288.4
2020-12-21T09:58:03,42.805,6.029,-0.042,0.0,-0.024,101.0,105.0,98.0,13.3,1505.4,325.2,-0.7,1.8,2470.519,13.34,0.042,270.0
2020-12-21T10:04:03,42.805,6.029,-0.016,-0.007,0.009,101.0,106.0,99.0,13.4,1505.3,325.5,-0.7,1.8,2470.591,13.32,0.017,246.4
2020-12-21T10:07:03,42.805,6.029,-0.033,-0.006,-0.017,101.0,104.0,100.0,13.4,1505.3,327.9,-0.7,1.9,2470.558,13.32,0.033,259.7
2020-12-21T10:10:03,42.805,6.029,-0.019,0.009,-0.022,100.0,106.0,99.0,13.3,1505.3,326.8,-0.7,1.8,2470.57,13.33,0.021,295.3